When you browse on this site, cookies collect data to enhance your experience and personalize the content and advertising you see.
Visit our Privacy Policy to learn more. By continuing to use the site, you agree to this use of cookies and data.
  • In Austria
  • List of Countries
  • For 7 days
  • Water Temperature
  • Weather Map
  • News
  • Weather Widgets
  • user-avatar
    Login

    Hourly Weather Rysaevo

    Today, 28 May, Thursday

    Time Temperature Precipitation Wind Pressure Humidity
    00:00 +21°C° 0 mm 6 mps 741 mmHg 65%
    01:00 +20°C° 0 mm 5 mps 741 mmHg 67%
    02:00 +19°C° 0.1 mm 4 mps 741 mmHg 70%
    03:00 +18°C° 0.1 mm 2 mps 740 mmHg 73%
    04:00 +18°C° 0 mm 1 mps 740 mmHg 76%
    05:00 +20°C° 0.3 mm 1 mps 740 mmHg 74%
    06:00 +20°C° 0.3 mm 2 mps 740 mmHg 72%
    07:00 +21°C° 0.3 mm 2 mps 740 mmHg 70%
    08:00 +24°C° 0 mm 2 mps 740 mmHg 63%
    09:00 +26°C° 0 mm 3 mps 740 mmHg 57%
    10:00 +29°C° 0 mm 3 mps 740 mmHg 49%
    11:00 +30°C° 0 mm 3 mps 739 mmHg 46%
    12:00 +31°C° 0 mm 3 mps 739 mmHg 42%
    13:00 +33°C° 0 mm 3 mps 739 mmHg 38%
    14:00 +34°C° 0 mm 3 mps 739 mmHg 38%
    15:00 +34°C° 0 mm 2 mps 739 mmHg 37%
    16:00 +34°C° 0 mm 1 mps 738 mmHg 35%
    17:00 +32°C° 0 mm 2 mps 738 mmHg 45%
    18:00 +30°C° 0 mm 2 mps 738 mmHg 55%
    19:00 +28°C° 0 mm 3 mps 738 mmHg 65%
    20:00 +26°C° 0 mm 3 mps 738 mmHg 72%
    21:00 +24°C° 0 mm 3 mps 738 mmHg 79%
    22:00 +21°C° 0 mm 3 mps 738 mmHg 87%
    23:00 +21°C° 0 mm 3 mps 738 mmHg 88%

    Tomorrow, 29 May, Friday

    Time Temperature Precipitation Wind Pressure Humidity
    00:00 +20°C° 0 mm 3 mps 738 mmHg 89%
    01:00 +19°C° 0 mm 2 mps 738 mmHg 91%
    02:00 +19°C° 0 mm 3 mps 738 mmHg 90%
    03:00 +18°C° 0 mm 3 mps 738 mmHg 90%
    04:00 +18°C° 0 mm 3 mps 738 mmHg 90%
    05:00 +19°C° 0 mm 5 mps 738 mmHg 85%
    06:00 +19°C° 0 mm 6 mps 738 mmHg 80%
    07:00 +20°C° 0 mm 7 mps 739 mmHg 75%
    08:00 +21°C° 0 mm 7 mps 739 mmHg 71%
    09:00 +22°C° 0 mm 7 mps 739 mmHg 68%
    10:00 +23°C° 0 mm 7 mps 739 mmHg 64%
    11:00 +26°C° 0 mm 7 mps 739 mmHg 62%
    12:00 +27°C° 0 mm 7 mps 739 mmHg 59%
    13:00 +28°C° 0 mm 7 mps 739 mmHg 56%
    14:00 +28°C° 0 mm 7 mps 739 mmHg 56%
    15:00 +28°C° 0 mm 7 mps 739 mmHg 56%
    16:00 +28°C° 0 mm 7 mps 739 mmHg 56%
    17:00 +27°C° 0 mm 7 mps 739 mmHg 60%
    18:00 +26°C° 0 mm 6 mps 739 mmHg 64%
    19:00 +23°C° 0 mm 6 mps 739 mmHg 68%
    20:00 +22°C° 0 mm 7 mps 739 mmHg 67%
    21:00 +21°C° 0 mm 7 mps 739 mmHg 67%
    22:00 +20°C° 0 mm 7 mps 739 mmHg 66%
    23:00 +18°C° 0 mm 7 mps 739 mmHg 65%

    Day after tomorrow, 30 May, Saturday

    Time Temperature Precipitation Wind Pressure Humidity
    00:00 +18°C° 0 mm 8 mps 739 mmHg 64%
    01:00 +17°C° 0 mm 8 mps 739 mmHg 63%
    02:00 +17°C° 0 mm 8 mps 739 mmHg 62%
    03:00 +16°C° 0 mm 8 mps 739 mmHg 61%
    04:00 +16°C° 0 mm 8 mps 739 mmHg 60%
    05:00 +17°C° 0 mm 8 mps 739 mmHg 61%
    06:00 +17°C° 0 mm 8 mps 739 mmHg 62%
    07:00 +18°C° 0 mm 8 mps 739 mmHg 63%
    08:00 +20°C° 0 mm 8 mps 739 mmHg 60%
    09:00 +22°C° 0 mm 7 mps 739 mmHg 57%
    10:00 +24°C° 0 mm 7 mps 739 mmHg 54%
    11:00 +26°C° 0 mm 7 mps 739 mmHg 52%
    12:00 +27°C° 0 mm 6 mps 738 mmHg 49%
    13:00 +29°C° 0 mm 6 mps 738 mmHg 47%
    14:00 +29°C° 0 mm 5 mps 738 mmHg 46%
    15:00 +30°C° 0 mm 5 mps 738 mmHg 45%
    16:00 +30°C° 0 mm 4 mps 737 mmHg 45%
    17:00 +29°C° 0 mm 4 mps 737 mmHg 49%
    18:00 +28°C° 0 mm 3 mps 737 mmHg 54%
    19:00 +27°C° 0 mm 2 mps 736 mmHg 59%
    20:00 +26°C° 0 mm 3 mps 736 mmHg 61%
    21:00 +24°C° 0 mm 3 mps 736 mmHg 62%
    22:00 +22°C° 0 mm 3 mps 736 mmHg 63%
    23:00 +22°C° 0 mm 4 mps 735 mmHg 64%

    31 May, Sunday

    Time Temperature Precipitation Wind Pressure Humidity
    00:00 +21°C° 0 mm 4 mps 735 mmHg 65%
    01:00 +21°C° 0 mm 4 mps 735 mmHg 66%
    02:00 +20°C° 0 mm 3 mps 734 mmHg 67%
    03:00 +20°C° 0 mm 2 mps 734 mmHg 67%
    04:00 +20°C° 0 mm 2 mps 733 mmHg 67%
    05:00 +21°C° 0 mm 2 mps 733 mmHg 64%
    06:00 +24°C° 0 mm 2 mps 733 mmHg 61%
    07:00 +25°C° 0 mm 2 mps 733 mmHg 58%
    08:00 +26°C° 0 mm 3 mps 732 mmHg 57%
    09:00 +28°C° 0 mm 5 mps 732 mmHg 56%
    10:00 +29°C° 0 mm 6 mps 732 mmHg 54%
    11:00 +29°C° 0 mm 7 mps 732 mmHg 54%
    12:00 +30°C° 0 mm 7 mps 732 mmHg 54%
    13:00 +31°C° 0 mm 8 mps 732 mmHg 54%
    14:00 +31°C° 0 mm 8 mps 732 mmHg 53%
    15:00 +29°C° 0 mm 8 mps 732 mmHg 53%
    16:00 +28°C° 0 mm 8 mps 732 mmHg 52%
    17:00 +27°C° 0 mm 7 mps 732 mmHg 56%
    18:00 +24°C° 0 mm 6 mps 732 mmHg 61%
    19:00 +23°C° 0 mm 5 mps 732 mmHg 66%
    20:00 +22°C° 0 mm 5 mps 733 mmHg 67%
    21:00 +21°C° 0 mm 5 mps 733 mmHg 68%
    22:00 +20°C° 0 mm 6 mps 733 mmHg 69%
    23:00 +19°C° 0 mm 6 mps 733 mmHg 70%

    1 June, Monday

    Time Temperature Precipitation Wind Pressure Humidity
    00:00 +17°C° 0 mm 6 mps 733 mmHg 70%
    01:00 +16°C° 0 mm 6 mps 733 mmHg 71%
    02:00 +16°C° 0 mm 5 mps 733 mmHg 73%
    03:00 +15°C° 0 mm 5 mps 733 mmHg 76%
    04:00 +14°C° 0 mm 5 mps 732 mmHg 79%
    05:00 +15°C° 0 mm 6 mps 733 mmHg 76%
    06:00 +16°C° 0 mm 6 mps 733 mmHg 74%
    07:00 +17°C° 0 mm 7 mps 733 mmHg 72%
    08:00 +18°C° 0 mm 8 mps 733 mmHg 67%
    09:00 +20°C° 0 mm 8 mps 733 mmHg 62%
    10:00 +21°C° 0 mm 8 mps 733 mmHg 56%
    11:00 +22°C° 0 mm 9 mps 733 mmHg 53%
    12:00 +22°C° 0 mm 9 mps 733 mmHg 50%
    13:00 +23°C° 0 mm 9 mps 732 mmHg 47%
    14:00 +23°C° 0.1 mm 9 mps 732 mmHg 50%
    15:00 +22°C° 0.1 mm 9 mps 732 mmHg 52%
    16:00 +22°C° 0.1 mm 9 mps 732 mmHg 55%
    17:00 +21°C° 0.2 mm 8 mps 732 mmHg 61%
    18:00 +18°C° 0.2 mm 7 mps 732 mmHg 66%
    19:00 +17°C° 0.2 mm 6 mps 732 mmHg 72%
    20:00 +16°C° 0 mm 5 mps 732 mmHg 76%
    21:00 +14°C° 0 mm 5 mps 733 mmHg 81%
    22:00 +12°C° 0 mm 4 mps 733 mmHg 85%
    23:00 +11°C° 0 mm 4 mps 733 mmHg 86%

    2 June, Tuesday

    Time Temperature Precipitation Wind Pressure Humidity
    00:00 +10°C° 0 mm 3 mps 733 mmHg 88%
    01:00 +9°C° 0 mm 2 mps 733 mmHg 90%
    02:00 +9°C° 0 mm 2 mps 733 mmHg 91%
    03:00 +8°C° 0 mm 2 mps 733 mmHg 93%
    04:00 +7°C° 0 mm 2 mps 733 mmHg 94%
    05:00 +8°C° 0 mm 2 mps 734 mmHg 88%
    06:00 +9°C° 0 mm 2 mps 734 mmHg 82%
    07:00 +12°C° 0 mm 2 mps 734 mmHg 76%
    08:00 +13°C° 0 mm 2 mps 734 mmHg 70%
    09:00 +13°C° 0 mm 3 mps 735 mmHg 63%
    10:00 +16°C° 0 mm 3 mps 735 mmHg 56%
    11:00 +17°C° 0 mm 3 mps 735 mmHg 53%
    12:00 +18°C° 0 mm 3 mps 735 mmHg 49%
    13:00 +19°C° 0 mm 3 mps 735 mmHg 46%
    14:00 +19°C° 0 mm 3 mps 735 mmHg 46%
    15:00 +19°C° 0 mm 3 mps 735 mmHg 47%
    16:00 +19°C° 0 mm 3 mps 735 mmHg 47%
    17:00 +18°C° 0 mm 2 mps 734 mmHg 52%
    18:00 +17°C° 0 mm 2 mps 734 mmHg 56%
    19:00 +18°C° 0 mm 1 mps 734 mmHg 61%
    20:00 +16°C° 0 mm 1 mps 734 mmHg 64%
    21:00 +15°C° 0 mm 1 mps 734 mmHg 68%
    22:00 +14°C° 0 mm 1 mps 734 mmHg 72%
    23:00 +13°C° 0 mm 1 mps 734 mmHg 79%
    Show more